DW5560 Weather Reports


time (UTC)temp
F
wind
direction
speed
knots
gust
knots
rain 1hr
in
rain 24hr
in
rain mn
in
humidity
%
barometer
mb
20260507070023 72 355 0.9 2.6 0.00 0.00 0.00 43 1018.9
20260507065034 71 82 0.0 2.6 0.00 0.00 0.00 43 1018.9
20260507064027 71 55 0.9 2.6 0.00 0.00 0.00 42 1018.9
20260507063038 70 107 1.7 3.5 0.00 0.00 0.00 37 1018.8
20260507062033 70 62 1.7 3.5 0.00 0.00 0.00 44 1018.8
20260507061024 69 41 0.9 1.7 0.00 0.00 0.00 41 1018.7
20260507060018 69 108 0.9 2.6 0.00 0.00 0.00 41 1018.6
20260507055030 68 111 0.0 2.6 0.00 0.00 0.00 42 1018.5
20260507054028 67 111 0.9 2.6 0.00 0.00 0.00 43 1018.4
20260507053021 68 143 0.0 1.7 0.00 0.00 0.00 45 1018.4
20260507052035 67 143 0.0 1.7 0.00 0.00 0.00 41 1018.5
20260507051032 65 143 0.0 1.7 0.00 0.00 0.00 45 1018.4
20260507050023 65 143 0.9 2.6 0.00 0.00 0.00 49 1018.1
20260507045035 64 188 0.9 3.5 0.00 0.00 0.00 48 1018.0
20260507044027 63 211 3.5 4.3 0.00 0.00 0.00 44 1018.0
20260507043022 62 205 2.6 3.5 0.00 0.00 0.00 48 1017.9
20260507042035 62 173 1.7 3.5 0.00 0.00 0.00 49 1018.0
20260507041047 62 182 3.5 4.3 0.00 0.00 0.00 46 1018.0
20260507040019 62 208 1.7 4.3 0.00 0.00 0.00 46 1017.8
20260507035016 62 207 2.6 5.2 0.00 0.00 0.00 45 1017.8
20260507034026 62 213 3.5 5.2 0.00 0.00 0.00 45 1017.9
20260507033019 62 211 3.5 4.3 0.00 0.00 0.00 45 1017.8
20260507032030 62 201 3.5 5.2 0.00 0.00 0.00 46 1017.7
20260507031026 61 212 2.6 6.1 0.00 0.00 0.00 46 1017.6
20260507030019 61 216 3.5 5.2 0.00 0.00 0.00 46 1017.6
20260507025031 61 215 3.5 5.2 0.00 0.00 0.00 47 1017.6
20260507024024 61 203 3.5 5.2 0.00 0.00 0.00 48 1017.6
20260507023021 60 197 3.5 4.3 0.00 0.00 0.00 49 1017.5
20260507022034 61 208 1.7 2.6 0.00 0.00 0.00 50 1017.4
20260507021025 61 208 1.7 4.3 0.00 0.00 0.00 48 1017.3
20260507020038 62 187 2.6 6.1 0.00 0.00 0.00 49 1017.4
20260507015015 61 196 5.2 7.8 0.00 0.00 0.00 51 1017.3
20260507014028 62 207 5.2 6.1 0.00 0.00 0.00 49 1017.2
20260507013022 62 195 4.3 6.1 0.00 0.00 0.00 49 1017.3
20260507012035 62 200 4.3 7.0 0.00 0.00 0.00 50 1017.3
20260507011033 62 194 4.3 7.8 0.00 0.00 0.00 49 1017.4
20260507010024 62 215 5.2 7.0 0.00 0.00 0.00 48 1017.6
20260507005036 62 200 4.3 7.0 0.00 0.00 0.00 48 1017.6
20260507004030 62 191 2.6 7.0 0.00 0.00 0.00 46 1017.6
20260507003028 62 196 4.3 6.1 0.00 0.00 0.00 47 1017.7
20260507002021 62 198 5.2 7.8 0.00 0.00 0.00 47 1017.7
20260507001033 62 207 4.3 7.8 0.00 0.00 0.00 47 1017.7
20260507000030 62 186 4.3 8.7 0.00 0.00 0.00 47 1017.7
20260506235023 62 205 5.2 9.6 0.00 0.00 0.00 47 1017.7
20260506234036 62 193 4.3 7.8 0.00 0.00 0.00 47 1017.7
20260506233027 62 199 4.3 7.0 0.00 0.00 0.00 47 1017.6
20260506232022 62 203 3.5 6.1 0.00 0.00 0.00 47 1017.7
20260506231056 63 200 4.3 6.1 0.00 0.00 0.00 47 1017.9
20260506230027 63 202 3.5 5.2 0.00 0.00 0.00 47 1017.9
20260506225020 63 230 2.6 4.3 0.00 0.00 0.00 48 1017.9
20260506224031 63 211 2.6 4.3 0.00 0.00 0.00 49 1018.0
20260506223048 63 213 2.6 3.5 0.00 0.00 0.00 50 1018.0
20260506222018 63 213 0.0 2.6 0.00 0.00 0.00 50 1018.1
20260506221031 63 223 1.7 2.6 0.00 0.00 0.00 50 1018.3
20260506220045 63 206 1.7 3.5 0.00 0.00 0.00 51 1018.1
20260506215021 62 215 1.7 3.5 0.00 0.00 0.00 51 1018.1
20260506214054 63 206 3.5 5.2 0.00 0.00 0.00 51 1018.1
20260506213027 63 219 3.5 4.3 0.00 0.00 0.00 50 1018.2
20260506212020 63 204 2.6 4.3 0.00 0.00 0.00 51 1018.2
20260506211019 62 206 2.6 4.3 0.00 0.00 0.00 51 1018.4
20260506210033 62 209 3.5 5.2 0.00 0.00 0.00 52 1018.3
20260506205026 62 186 2.6 4.3 0.00 0.00 0.00 54 1018.5
20260506204043 62 208 2.6 5.2 0.00 0.00 0.00 56 1018.4
20260506203036 62 218 3.5 5.2 0.00 0.00 0.00 58 1018.5
20260506202030 61 190 4.3 6.1 0.00 0.00 0.00 60 1018.4
20260506201020 61 217 2.6 6.1 0.00 0.00 0.00 63 1018.5
20260506200017 61 205 5.2 7.0 0.00 0.00 0.00 63 1018.4
20260506195030 61 196 4.3 7.0 0.00 0.00 0.00 66 1018.5
20260506194023 61 196 4.3 6.1 0.00 0.00 0.00 67 1018.5
20260506193034 61 196 5.2 7.0 0.00 0.00 0.00 69 1018.4
20260506192032 61 180 4.3 6.1 0.00 0.00 0.00 70 1018.3
20260506191023 61 214 4.3 6.1 0.00 0.00 0.00 72 1018.2
20260506190033 61 206 3.5 5.2 0.00 0.00 0.00 72 1018.1
20260506185026 61 200 3.5 7.0 0.00 0.00 0.00 73 1018.0
20260506184040 62 190 3.5 6.1 0.00 0.00 0.00 73 1018.0
20260506183032 62 209 2.6 3.5 0.00 0.00 0.00 72 1017.8
20260506182025 62 336 0.0 1.7 0.00 0.00 0.00 71 1017.6
20260506181017 62 336 1.7 3.5 0.00 0.00 0.00 71 1017.6
20260506180031 62 336 1.7 2.6 0.00 0.00 0.00 70 1017.5
20260506175028 62 336 0.0 0.0 0.00 0.00 0.00 70 1017.4
20260506174020 63 336 0.0 0.0 0.00 0.00 0.00 69 1017.3
20260506173032 63 336 0.0 0.0 0.00 0.00 0.00 69 1017.3
20260506172024 64 336 0.0 1.7 0.00 0.00 0.00 68 1017.2
20260506171021 64 336 1.7 2.6 0.00 0.00 0.00 66 1017.2
20260506170033 65 336 1.7 3.5 0.00 0.00 0.00 65 1017.2
20260506165025 65 336 1.7 3.5 0.00 0.00 0.00 63 1017.1
20260506164057 66 336 2.6 3.5 0.00 0.00 0.00 63 1017.0
20260506163033 66 333 2.6 5.2 0.00 0.00 0.00 63 1017.0
20260506162024 66 318 3.5 5.2 0.00 0.00 0.00 62 1017.0
20260506161017 67 341 3.5 5.2 0.00 0.00 0.00 61 1017.1
20260506160050 68 19 2.6 5.2 0.00 0.00 0.00 61 1017.0
20260506155026 68 360 2.6 7.0 0.00 0.00 0.00 60 1017.0
20260506154019 69 301 2.6 5.2 0.00 0.00 0.00 59 1017.0
20260506153032 69 355 2.6 5.2 0.00 0.00 0.00 59 1017.1
20260506152029 69 330 3.5 7.0 0.00 0.00 0.00 58 1017.0
20260506151021 70 329 4.3 7.8 0.00 0.00 0.00 57 1017.0
20260506150053 70 340 3.5 7.0 0.00 0.00 0.00 57 1017.0
20260506145024 70 277 1.7 7.0 0.00 0.00 0.00 57 1017.0
20260506144021 71 320 4.3 7.8 0.00 0.00 0.00 55 1017.1
20260506143037 71 343 2.6 8.7 0.00 0.00 0.00 55 1017.1
20260506142028 71 45 3.5 7.0 0.00 0.00 0.00 55 1017.0
20260506141023 70 343 5.2 7.8 0.00 0.00 0.00 55 1017.1
20260506140034 71 12 4.3 7.8 0.00 0.00 0.00 55 1017.1
20260506135047 71 351 4.3 7.8 0.00 0.00 0.00 54 1017.2
20260506134021 72 5 2.6 9.6 0.00 0.00 0.00 53 1017.2
20260506133018 73 9 3.5 7.0 0.00 0.00 0.00 51 1017.1
20260506132028 73 343 3.5 7.8 0.00 0.00 0.00 50 1017.1
20260506131041 73 5 4.3 8.7 0.00 0.00 0.00 50 1017.1
20260506130033 73 9 4.3 7.8 0.00 0.00 0.00 49 1017.1
20260506125030 73 39 3.5 7.0 0.00 0.00 0.00 49 1017.2
20260506124020 73 360 4.3 8.7 0.00 0.00 0.00 49 1017.3
20260506123032 73 44 3.5 7.8 0.00 0.00 0.00 48 1017.3
20260506122025 73 34 4.3 8.7 0.00 0.00 0.00 47 1017.5
20260506121022 72 48 4.3 8.7 0.00 0.00 0.00 46 1017.4
20260506120035 73 355 3.5 7.8 0.00 0.00 0.00 39 1017.6
20260506115027 73 13 3.5 7.8 0.00 0.00 0.00 45 1017.6
20260506114039 73 57 3.5 8.7 0.00 0.00 0.00 47 1017.7
20260506113030 73 29 3.5 7.8 0.00 0.00 0.00 47 1017.6
20260506112024 73 57 4.3 8.7 0.00 0.00 0.00 44 1017.6
20260506111018 73 19 4.3 9.6 0.00 0.00 0.00 45 1017.8
20260506110031 72 61 4.3 7.8 0.00 0.00 0.00 46 1017.6
20260506105027 72 344 4.3 9.6 0.00 0.00 0.00 44 1017.6
20260506104039 72 5 7.0 10.4 0.00 0.00 0.00 43 1017.6
20260506103030 73 335 5.2 10.4 0.00 0.00 0.00 42 1017.6
20260506102023 73 350 3.5 9.6 0.00 0.00 0.00 41 1017.6
20260506101019 73 355 5.2 9.6 0.00 0.00 0.00 41 1017.6
20260506100032 72 19 3.5 12.2 0.00 0.00 0.00 41 1017.7
20260506095025 71 24 7.0 11.3 0.00 0.00 0.00 40 1017.6
20260506094039 72 10 4.3 10.4 0.00 0.00 0.00 40 1017.6
20260506093016 71 12 4.3 8.7 0.00 0.00 0.00 40 1017.7
20260506092027 72 42 4.3 8.7 0.00 0.00 0.00 40 1017.7
20260506091019 72 28 4.3 9.6 0.00 0.00 0.00 41 1017.9
20260506090033 72 340 3.5 8.7 0.00 0.00 0.00 39 1017.7
20260506085029 71 348 4.3 7.8 0.00 0.00 0.00 39 1017.7
20260506084022 72 337 3.5 8.7 0.00 0.00 0.00 38 1017.6
20260506083033 72 35 4.3 10.4 0.00 0.00 0.00 37 1017.6
20260506082026 72 53 2.6 7.8 0.00 0.00 0.00 37 1017.5
20260506081022 71 49 3.5 7.8 0.00 0.00 0.00 37 1017.4
20260506073030 71 360 2.6 5.2 0.00 0.00 0.00 36 1017.1
20260506072026 70 45 3.5 7.0 0.00 0.00 0.00 35 1017.1
20260506071019 70 58 2.6 5.2 0.00 0.00 0.00 36 1017.1